Minot AFB, ND

6:33 AM CDT on March 29, 2017 (GMT -0500)
Minot Air Force Base

Weather History for KMIB - August, 2013

Change the Weather History Date:

Saturday, August 10, 2013

  Actual Average Record
Temperature  
Mean Temperature 58 °F -  
Max Temperature 71 °F 79 °F 93 °F (1998)
Min Temperature 45 °F 54 °F 39 °F (1997)
Degree Days  
Heating Degree Days 8    
Growing Degree Days 8 (Base 50)    
Moisture  
Dew Point 50 °F    
Average Humidity 79    
Maximum Humidity 100    
Minimum Humidity 52    
Precipitation  
Precipitation 0.00 in - - ()
Sea Level Pressure  
Sea Level Pressure 30.17 in    
Wind  
Wind Speed 3 mph (WNW)    
Max Wind Speed 10 mph    
Max Gust Speed -    
Visibility 10 miles    
Events      
Averages and records for this station are not official NWS values.
T = Trace of Precipitation, MM = Missing Value Source: NWS Daily Summary

Daily Weather History Graph

Daily Weather History Graph

Search for Another Location

Airport or City:

Trip Planner

Search our weather history database for the weather conditions in past years. The results will help you decide how hot, cold, wet, or windy it might be!

Date:

Astronomy

Aug. 10, 2013 Rise Set
Actual Time 6:32 AM CDT 9:07 PM CDT
Civil Twilight 5:57 AM CDT 9:42 PM CDT
Nautical Twilight 5:12 AM CDT 10:27 PM CDT
Astronomical Twilight 4:20 AM CDT 11:19 PM CDT
Moon 10:45 AM CDT (8/10) 10:24 PM CDT (8/10)
Length of Visible Light 15h 45m
Length of Day
14h 35m
Waxing Crescent, 14% of the Moon is Illuminated
Aug 10
Waxing Crescent
Aug 14
First Quarter
Aug 20
Full
Aug 28
Last Quarter
Sep 5
New

Hourly Weather History & Observations

Time (CDT) Temp. Dew Point Humidity Pressure Visibility Wind Dir Wind Speed Gust Speed Precip Events Conditions
12:53 AM 48.2 °F 46.4 °F 93% 30.20 in 8.0 mi WNW 1.2 mph - N/A   Clear
12:58 AM 47.1 °F 45.5 °F 94% 30.23 in 8.0 mi West 4.6 mph - N/A   Clear
1:03 AM 48.2 °F 46.4 °F 93% 30.20 in 10.0 mi West 3.5 mph - N/A   Clear
1:58 AM 47.7 °F 46.8 °F 97% 30.23 in 10.0 mi WSW 3.5 mph - N/A   Clear
2:58 AM 46.8 °F 45.5 °F 95% 30.23 in 10.0 mi West 3.5 mph - N/A   Clear
3:58 AM 47.1 °F 46.0 °F 96% 30.24 in 10.0 mi NW 3.5 mph - N/A   Overcast
4:58 AM 48.2 °F 47.1 °F 96% 30.22 in 10.0 mi West 2.3 mph - N/A   Partly Cloudy
5:48 AM 46.4 °F 46.4 °F 100% 30.18 in 9.0 mi SSW 1.2 mph - N/A   Clear
5:53 AM 46.4 °F 44.6 °F 93% 30.18 in 6.0 mi South 2.3 mph - N/A   Clear
5:58 AM 45.9 °F 45.3 °F 98% 30.21 in 6.0 mi Calm Calm - N/A   Clear
6:03 AM 46.4 °F 44.6 °F 93% 30.18 in 10.0 mi SW 1.2 mph - N/A   Clear
6:58 AM 46.6 °F 46.4 °F 99% 30.21 in 10.0 mi SSW 1.2 mph - N/A   Clear
7:58 AM 52.7 °F 50.5 °F 92% 30.20 in 10.0 mi South 3.5 mph - N/A   Clear
8:58 AM 57.9 °F 52.7 °F 83% 30.22 in 10.0 mi South 3.5 mph - N/A   Clear
9:58 AM 61.5 °F 52.9 °F 73% 30.20 in 10.0 mi SW 4.6 mph - N/A   Overcast
10:58 AM 64.6 °F 50.5 °F 60% 30.20 in 10.0 mi Variable 2.3 mph - N/A   Mostly Cloudy
11:58 AM 66.6 °F 50.2 °F 56% 30.19 in 10.0 mi Variable 3.5 mph - N/A   Mostly Cloudy
12:58 PM 68.2 °F 51.8 °F 56% 30.17 in 10.0 mi Variable 2.3 mph - N/A   Overcast
1:58 PM 68.7 °F 52.0 °F 55% 30.15 in 10.0 mi Variable 2.3 mph - N/A   Scattered Clouds
2:58 PM 69.8 °F 52.2 °F 53% 30.14 in 10.0 mi NNE 2.3 mph - N/A   Mostly Cloudy
3:58 PM 70.9 °F 52.3 °F 52% 30.13 in 10.0 mi East 4.6 mph - N/A   Scattered Clouds
4:58 PM 70.0 °F 52.9 °F 55% 30.13 in 10.0 mi North 8.1 mph - N/A   Mostly Cloudy
5:58 PM 68.2 °F 52.9 °F 58% 30.12 in 10.0 mi North 10.4 mph - 0.00 in   Light Drizzle
6:58 PM 67.8 °F 53.1 °F 59% 30.11 in 10.0 mi NE 6.9 mph - 0.00 in   Mostly Cloudy
7:58 PM 65.1 °F 54.7 °F 69% 30.10 in 10.0 mi NNE 10.4 mph - N/A   Partly Cloudy
8:58 PM 63.0 °F 55.4 °F 76% 30.10 in 10.0 mi NNE 8.1 mph - N/A   Mostly Cloudy
9:58 PM 60.8 °F 54.9 °F 81% 30.12 in 10.0 mi NNE 8.1 mph - N/A   Scattered Clouds
10:58 PM 59.5 °F 55.8 °F 87% 30.13 in 10.0 mi NNE 5.8 mph - N/A   Overcast
11:58 PM 58.5 °F 55.6 °F 90% 30.14 in 10.0 mi North 3.5 mph - N/A   Mostly Cloudy